Home > Weather > Changchun > Past weeks

Flag for China Weather for the Past 2 Weeks in Changchun, Jilin, China

Now
57 °F

Sunny.


Feels Like: 55 °F
Forecast: 48 / 60 °F
Wind: 8 mph from Southwest

Location: Changchun Airport

Current Time: May 5, 2016 at 8:08:15 AM

Latest Report: May 5, 2016 at 7:00 AM


Visibility: 10 mi

Pressure: 29.83 "Hg

Humidity: 36%

Dew Point: 30 °F

Location of ChangchunLocation

Historic Weather in Changchun — Graph

°F

Changchun Temperature Yesterday

Maximum temperature yesterday: 63 °F (at 4:00 PM)
Minimum temperature yesterday: 43 °F (at 1:00 AM)
Average temperature yesterday: 51 °F

High & Low Weather Summary for the Past Weeks

 TemperatureHumidityPressure
High72 °F (Apr 21, 12:00 PM)88% (May 3, 2:00 AM)30.21 "Hg (May 3, 2:00 AM)
Low34 °F (Apr 24, 3:00 AM)11% (Apr 24, 2:00 PM)29.00 "Hg (May 3, 4:00 PM)
Average53 °F47%29.75 "Hg
* Reported Apr 20 7:00 AM — May 5 7:00 AM, Changchun, Weather by CustomWeather, © 2016

Note: Actual official high and low records may vary slightly from our data, if they occured in-between our weather recording intervals... More about our weather records

Advertising

Changchun Weather History for the Previous 24 Hours

Scroll right to see more
 ConditionsComfort  
Time TempWeatherWind HumidityBarometerVisibility
7:00 AM
Thu, May 5
57 °FSunny.8 mph36%29.83 "Hg10 mi
6:00 AM52 °FSunny.10 mph47%29.83 "Hg10 mi
5:00 AM43 °FSunny.8 mph66%29.80 "Hg10 mi
4:00 AM50 °FClear.6 mph43%29.77 "Hg10 mi
3:00 AM48 °FClear.8 mph50%29.74 "Hg10 mi
2:00 AM50 °FClear.8 mph43%29.74 "Hg10 mi
1:00 AM52 °FClear.8 mph41%29.71 "Hg10 mi
12:00 AM52 °FClear.6 mph44%29.71 "Hg10 mi
11:00 PM
Wed, May 4
52 °FPassing clouds.6 mph47%29.71 "HgN/A
10:00 PM54 °FPassing clouds.8 mph47%29.68 "HgN/A
9:00 PM54 °FPassing clouds.8 mph47%29.65 "HgN/A
8:00 PM55 °FPassing clouds.6 mph47%29.65 "HgN/A
7:00 PM57 °FPassing clouds.6 mph48%29.59 "HgN/A
6:00 PM59 °FPassing clouds.6 mph39%29.56 "HgN/A
5:00 PM61 °FSunny.10 mph34%29.53 "Hg10 mi
4:00 PM63 °FPassing clouds.13 mph30%29.50 "HgN/A
3:00 PM59 °FPartly sunny.10 mph42%29.50 "HgN/A
2:00 PM55 °FPartly sunny.15 mph55%29.47 "HgN/A
1:00 PM52 °FLight rain. Overcast.10 mph67%29.47 "HgN/A
12:00 PM50 °FLight rain. Low clouds.17 mph71%29.45 "Hg6 mi
11:00 AM48 °FLight rain. More clouds than sun.15 mph76%29.42 "Hg5 mi
10:00 AM46 °FLight rain. More clouds than sun.15 mph82%29.39 "Hg5 mi
9:00 AM46 °FLight rain. Fog.15 mph82%29.33 "Hg3 mi
8:00 AM46 °FLight rain. More clouds than sun.13 mph82%29.27 "Hg4 mi
Weather by CustomWeather, © 2016

See weather overviewHow to use our weather pages